Location: France
(46.2276°N, 2.2137°E)
Time: 23:33:33
(UTC+02:00)

ISS - Visible Passes

Search period start: 12 October 2024 00:00
Search period end: 22 October 2024 00:00
Orbit: 411 x 424 km, 51.6° (Epoch: 12 October)

Date Brightness Start Highest point End Pass type
(mag) Time Alt. Az. Time Alt. Az. Time Alt. Az.
17 Oct -1.3 07:08:44 10° S 07:11:21 22° SE 07:13:57 10° E visible
18 Oct -0.9 06:21:25 10° SSE 06:23:09 14° SE 06:24:52 10° ESE visible
19 Oct -3.0 07:07:50 10° SW 07:11:01 51° SSE 07:14:16 10° ENE visible
20 Oct -2.3 06:21:50 28° S 06:22:37 32° SE 06:25:38 10° ENE visible
21 Oct -0.9 05:35:39 16° ESE 05:35:39 16° ESE 05:36:46 10° E visible
21 Oct -3.8 07:08:34 20° WSW 07:10:41 73° NNW 07:14:00 10° ENE visible
